| time (UTC) | temp C | wind direction | speed KPH | gust KPH | rain 1hr cm | rain 24hr cm | rain mn cm | humidity % | barometer mb |
| 20260509073905 | 11 | 124 | 1.6 | 4.8 | 0.00 | 0.00 | 0.00 | 38 | 1006.3 |
| 20260509073404 | 11 | 13 | 3.2 | 4.8 | 0.00 | 0.00 | 0.00 | 38 | 1006.3 |
| 20260509072904 | 11 | 0 | 3.2 | 4.8 | 0.00 | 0.00 | 0.00 | 38 | 1006.3 |
| 20260509072404 | 11 | 11 | 4.8 | 4.8 | 0.00 | 0.00 | 0.00 | 38 | 1006.3 |
| 20260509071905 | 11 | 0 | 4.8 | 4.8 | 0.00 | 0.00 | 0.00 | 38 | 1006.4 |
| 20260509065904 | 11 | 0 | 4.8 | 8.0 | 0.00 | 0.00 | 0.00 | 38 | 1006.4 |
| 20260509065404 | 11 | 1 | 1.6 | 4.8 | 0.00 | 0.00 | 0.00 | 38 | 1006.5 |
| 20260509064904 | 11 | 0 | 1.6 | 4.8 | 0.00 | 0.00 | 0.00 | 38 | 1006.5 |
| 20260509064404 | 11 | 0 | 1.6 | 4.8 | 0.00 | 0.00 | 0.00 | 37 | 1006.6 |
| 20260509063904 | 11 | 0 | 3.2 | 4.8 | 0.00 | 0.00 | 0.00 | 37 | 1006.6 |
| 20260509063404 | 11 | 0 | 3.2 | 4.8 | 0.00 | 0.00 | 0.00 | 37 | 1006.6 |
| 20260509062904 | 11 | 125 | 1.6 | 4.8 | 0.00 | 0.00 | 0.00 | 38 | 1006.6 |
| 20260509061905 | 11 | 140 | 3.2 | 4.8 | 0.00 | 0.00 | 0.00 | 38 | 1006.7 |
| 20260509061404 | 11 | 114 | 1.6 | 4.8 | 0.00 | 0.00 | 0.00 | 38 | 1006.6 |
| 20260509060904 | 12 | 145 | 1.6 | 4.8 | 0.00 | 0.00 | 0.00 | 36 | 1006.6 |
| 20260509055404 | 12 | 138 | 1.6 | 4.8 | 0.00 | 0.00 | 0.00 | 37 | 1006.6 |
| 20260509054404 | 12 | 141 | 4.8 | 4.8 | 0.00 | 0.00 | 0.00 | 35 | 1006.6 |
| 20260509053904 | 12 | 144 | 1.6 | 4.8 | 0.00 | 0.00 | 0.00 | 35 | 1006.6 |
| 20260509052904 | 12 | 144 | 0.0 | 4.8 | 0.00 | 0.00 | 0.00 | 36 | 1006.7 |
| 20260509052404 | 12 | 144 | 1.6 | 4.8 | 0.00 | 0.00 | 0.00 | 36 | 1006.7 |
| 20260509051904 | 12 | 144 | 3.2 | 4.8 | 0.00 | 0.00 | 0.00 | 35 | 1006.8 |
| 20260509051404 | 12 | 144 | 1.6 | 4.8 | 0.00 | 0.00 | 0.00 | 35 | 1006.8 |
| 20260509045903 | 12 | 147 | 1.6 | 4.8 | 0.00 | 0.00 | 0.00 | 33 | 1006.9 |
| 20260509045404 | 13 | 142 | 1.6 | 4.8 | 0.00 | 0.00 | 0.00 | 34 | 1006.9 |
| 20260509044904 | 13 | 145 | 1.6 | 3.2 | 0.00 | 0.00 | 0.00 | 33 | 1006.9 |
| 20260509044403 | 13 | 145 | 0.0 | 3.2 | 0.00 | 0.00 | 0.00 | 33 | 1006.9 |
| 20260509042904 | 13 | 144 | 1.6 | 4.8 | 0.00 | 0.00 | 0.00 | 33 | 1007.0 |
| 20260509042404 | 13 | 104 | 0.0 | 4.8 | 0.00 | 0.00 | 0.00 | 33 | 1006.9 |
| 20260509041404 | 13 | 136 | 0.0 | 3.2 | 0.00 | 0.00 | 0.00 | 33 | 1006.9 |
| 20260509040404 | 13 | 0 | 1.6 | 4.8 | 0.00 | 0.00 | 0.00 | 31 | 1006.7 |
| 20260509035904 | 14 | 0 | 1.6 | 3.2 | 0.00 | 0.00 | 0.00 | 32 | 1006.8 |
| 20260509035404 | 14 | 0 | 0.0 | 3.2 | 0.00 | 0.00 | 0.00 | 31 | 1006.7 |
| 20260509034904 | 15 | 165 | 0.0 | 3.2 | 0.00 | 0.00 | 0.00 | 30 | 1006.6 |
| 20260509033404 | 16 | 81 | 1.6 | 4.8 | 0.00 | 0.00 | 0.00 | 27 | 1006.3 |
| 20260509032903 | 16 | 158 | 0.0 | 3.2 | 0.00 | 0.00 | 0.00 | 26 | 1006.3 |
| 20260509032404 | 17 | 158 | 1.6 | 3.2 | 0.00 | 0.00 | 0.00 | 26 | 1006.3 |
| 20260509031905 | 17 | 158 | 1.6 | 3.2 | 0.00 | 0.00 | 0.00 | 24 | 1006.1 |
| 20260509031404 | 17 | 158 | 1.6 | 3.2 | 0.00 | 0.00 | 0.00 | 23 | 1006.0 |
| 20260509025404 | 20 | 236 | 1.6 | 4.8 | 0.00 | 0.00 | 0.00 | 20 | 1005.7 |
| 20260509024403 | 20 | 202 | 0.0 | 4.8 | 0.00 | 0.00 | 0.00 | 19 | 1005.5 |
| 20260509023405 | 20 | 269 | 3.2 | 9.7 | 0.00 | 0.00 | 0.00 | 17 | 1005.3 |
| 20260509022405 | 21 | 228 | 3.2 | 9.7 | 0.00 | 0.00 | 0.00 | 17 | 1005.0 |
| 20260509020404 | 22 | 245 | 1.6 | 4.8 | 0.00 | 0.00 | 0.00 | 17 | 1004.6 |
| 20260509014405 | 22 | 279 | 1.6 | 11.3 | 0.00 | 0.00 | 0.00 | 18 | 1004.4 |
| 20260509013403 | 23 | 224 | 1.6 | 4.8 | 0.00 | 0.00 | 0.00 | 17 | 1004.3 |
| 20260509012904 | 23 | 127 | 0.0 | 0.0 | 0.00 | 0.00 | 0.00 | 18 | 1004.3 |
| 20260509011405 | 23 | 328 | 0.0 | 4.8 | 0.00 | 0.00 | 0.00 | 17 | 1004.4 |
| 20260509005904 | 23 | 38 | 3.2 | 4.8 | 0.00 | 0.00 | 0.00 | 17 | 1004.5 |
| 20260509004903 | 23 | 136 | 1.6 | 3.2 | 0.00 | 0.00 | 0.00 | 16 | 1004.4 |
| 20260509004404 | 23 | 78 | 0.0 | 4.8 | 0.00 | 0.00 | 0.00 | 17 | 1004.4 |
| 20260509001904 | 24 | 116 | 0.0 | 4.8 | 0.00 | 0.00 | 0.00 | 16 | 1004.6 |
| 20260509000404 | 25 | 193 | 3.2 | 4.8 | 0.00 | 0.00 | 0.00 | 16 | 1004.7 |
| 20260508235904 | 25 | 239 | 3.2 | 11.3 | 0.00 | 0.00 | 0.00 | 15 | 1004.6 |
| 20260508235404 | 25 | 248 | 3.2 | 11.3 | 0.00 | 0.00 | 0.00 | 16 | 1004.7 |
| 20260508233904 | 24 | 269 | 3.2 | 8.0 | 0.00 | 0.00 | 0.00 | 16 | 1004.7 |
| 20260508233404 | 25 | 79 | 4.8 | 8.0 | 0.00 | 0.00 | 0.00 | 16 | 1004.7 |
| 20260508232905 | 25 | 109 | 3.2 | 11.3 | 0.00 | 0.00 | 0.00 | 15 | 1004.6 |
| 20260508231906 | 25 | 105 | 4.8 | 11.3 | 0.00 | 0.00 | 0.00 | 14 | 1004.8 |
| 20260508230905 | 26 | 31 | 1.6 | 4.8 | 0.00 | 0.00 | 0.00 | 16 | 1004.7 |
| 20260508224405 | 25 | 196 | 1.6 | 8.0 | 0.00 | 0.00 | 0.00 | 15 | 1005.0 |
| 20260508223905 | 25 | 97 | 1.6 | 8.0 | 0.00 | 0.00 | 0.00 | 16 | 1005.0 |
| 20260508223405 | 25 | 22 | 3.2 | 8.0 | 0.00 | 0.00 | 0.00 | 15 | 1005.2 |
| 20260508222905 | 25 | 305 | 1.6 | 8.0 | 0.00 | 0.00 | 0.00 | 16 | 1005.2 |
| 20260508221905 | 25 | 205 | 3.2 | 9.7 | 0.00 | 0.00 | 0.00 | 16 | 1005.4 |
| 20260508221405 | 25 | 205 | 3.2 | 9.7 | 0.00 | 0.00 | 0.00 | 16 | 1005.4 |
| 20260508220906 | 25 | 39 | 3.2 | 9.7 | 0.00 | 0.00 | 0.00 | 15 | 1005.6 |
| 20260508220405 | 24 | 203 | 3.2 | 9.7 | 0.00 | 0.00 | 0.00 | 17 | 1005.6 |
| 20260508215904 | 24 | 48 | 3.2 | 11.3 | 0.00 | 0.00 | 0.00 | 15 | 1005.6 |
| 20260508214405 | 24 | 217 | 8.0 | 16.1 | 0.00 | 0.00 | 0.00 | 16 | 1005.7 |
| 20260508212905 | 24 | 233 | 4.8 | 14.5 | 0.00 | 0.00 | 0.00 | 16 | 1006.1 |
| 20260508211905 | 25 | 202 | 4.8 | 11.3 | 0.00 | 0.00 | 0.00 | 15 | 1006.2 |
| 20260508211405 | 25 | 267 | 1.6 | 8.0 | 0.00 | 0.00 | 0.00 | 15 | 1006.3 |
| 20260508210905 | 25 | 237 | 3.2 | 8.0 | 0.00 | 0.00 | 0.00 | 16 | 1006.4 |
| 20260508204905 | 25 | 250 | 3.2 | 9.7 | 0.00 | 0.00 | 0.00 | 15 | 1006.5 |
| 20260508203905 | 24 | 217 | 3.2 | 14.5 | 0.00 | 0.00 | 0.00 | 16 | 1006.8 |
| 20260508202905 | 24 | 277 | 4.8 | 14.5 | 0.00 | 0.00 | 0.00 | 16 | 1007.0 |
| 20260508200905 | 24 | 349 | 3.2 | 12.9 | 0.00 | 0.00 | 0.00 | 15 | 1007.1 |
| 20260508194905 | 24 | 170 | 4.8 | 14.5 | 0.00 | 0.00 | 0.00 | 16 | 1007.3 |
| 20260508194405 | 24 | 325 | 3.2 | 14.5 | 0.00 | 0.00 | 0.00 | 16 | 1007.5 |
| 20260508193905 | 24 | 76 | 3.2 | 11.3 | 0.00 | 0.00 | 0.00 | 17 | 1007.5 |
| 20260508193405 | 24 | 352 | 3.2 | 11.3 | 0.00 | 0.00 | 0.00 | 17 | 1007.6 |
| 20260508192405 | 24 | 90 | 1.6 | 8.0 | 0.00 | 0.00 | 0.00 | 18 | 1007.7 |
| 20260508190905 | 23 | 238 | 3.2 | 11.3 | 0.00 | 0.00 | 0.00 | 19 | 1008.0 |
| 20260508190405 | 23 | 242 | 6.4 | 11.3 | 0.00 | 0.00 | 0.00 | 17 | 1008.1 |
| 20260508185405 | 23 | 303 | 3.2 | 11.3 | 0.00 | 0.00 | 0.00 | 18 | 1008.2 |
| 20260508184906 | 23 | 291 | 4.8 | 11.3 | 0.00 | 0.00 | 0.00 | 18 | 1008.4 |
| 20260508184406 | 23 | 343 | 4.8 | 12.9 | 0.00 | 0.00 | 0.00 | 19 | 1008.4 |
| 20260508183905 | 23 | 42 | 4.8 | 12.9 | 0.00 | 0.00 | 0.00 | 17 | 1008.4 |
| 20260508183405 | 23 | 297 | 3.2 | 9.7 | 0.00 | 0.00 | 0.00 | 18 | 1008.5 |
| 20260508182405 | 22 | 63 | 1.6 | 9.7 | 0.00 | 0.00 | 0.00 | 20 | 1008.7 |
| 20260508181405 | 22 | 327 | 3.2 | 9.7 | 0.00 | 0.00 | 0.00 | 18 | 1008.9 |
| 20260508180905 | 22 | 338 | 4.8 | 11.3 | 0.00 | 0.00 | 0.00 | 20 | 1008.9 |
| 20260508180406 | 22 | 32 | 3.2 | 11.3 | 0.00 | 0.00 | 0.00 | 20 | 1009.0 |
| 20260508175405 | 21 | 267 | 3.2 | 9.7 | 0.00 | 0.00 | 0.00 | 20 | 1009.3 |
| 20260508174905 | 21 | 268 | 3.2 | 9.7 | 0.00 | 0.00 | 0.00 | 21 | 1009.4 |
| 20260508173905 | 21 | 62 | 3.2 | 8.0 | 0.00 | 0.00 | 0.00 | 21 | 1009.6 |
| 20260508165905 | 20 | 3 | 1.6 | 4.8 | 0.00 | 0.00 | 0.00 | 23 | 1010.2 |
| 20260508164904 | 20 | 251 | 1.6 | 11.3 | 0.00 | 0.00 | 0.00 | 24 | 1010.2 |
| 20260508163905 | 18 | 247 | 3.2 | 11.3 | 0.00 | 0.00 | 0.00 | 22 | 1010.4 |
| 20260508162905 | 18 | 22 | 1.6 | 8.0 | 0.00 | 0.00 | 0.00 | 23 | 1010.4 |
| 20260508162405 | 18 | 296 | 1.6 | 9.7 | 0.00 | 0.00 | 0.00 | 25 | 1010.5 |
| 20260508161905 | 17 | 233 | 4.8 | 9.7 | 0.00 | 0.00 | 0.00 | 24 | 1010.4 |
| 20260508161405 | 17 | 230 | 3.2 | 4.8 | 0.00 | 0.00 | 0.00 | 23 | 1010.5 |
| 20260508160904 | 17 | 268 | 1.6 | 4.8 | 0.00 | 0.00 | 0.00 | 24 | 1010.5 |
| 20260508154406 | 16 | 322 | 4.8 | 9.7 | 0.00 | 0.00 | 0.00 | 24 | 1010.8 |
| 20260508153405 | 16 | 351 | 3.2 | 4.8 | 0.00 | 0.00 | 0.00 | 24 | 1010.8 |
| 20260508151405 | 15 | 300 | 3.2 | 4.8 | 0.00 | 0.00 | 0.00 | 26 | 1011.0 |
| 20260508145905 | 15 | 330 | 0.0 | 4.8 | 0.00 | 0.00 | 0.00 | 29 | 1011.0 |
| 20260508144405 | 14 | 242 | 0.0 | 8.0 | 0.00 | 0.00 | 0.00 | 31 | 1011.1 |
| 20260508143905 | 14 | 209 | 3.2 | 8.0 | 0.00 | 0.00 | 0.00 | 31 | 1011.1 |
| 20260508142905 | 13 | 257 | 1.6 | 3.2 | 0.00 | 0.00 | 0.00 | 35 | 1011.2 |
| 20260508141905 | 13 | 261 | 1.6 | 3.2 | 0.00 | 0.00 | 0.00 | 33 | 1011.4 |
| 20260508140905 | 12 | 323 | 0.0 | 4.8 | 0.00 | 0.00 | 0.00 | 35 | 1011.5 |
| 20260508140404 | 11 | 4 | 1.6 | 4.8 | 0.00 | 0.00 | 0.00 | 38 | 1011.5 |
| 20260508135405 | 10 | 144 | 0.0 | 3.2 | 0.00 | 0.00 | 0.00 | 44 | 1011.6 |
| 20260508134905 | 10 | 144 | 0.0 | 3.2 | 0.00 | 0.00 | 0.00 | 45 | 1011.7 |
| 20260508134405 | 9 | 144 | 0.0 | 4.8 | 0.00 | 0.00 | 0.00 | 46 | 1011.7 |
| 20260508133905 | 8 | 144 | 3.2 | 4.8 | 0.00 | 0.00 | 0.00 | 46 | 1011.7 |
| 20260508133405 | 8 | 144 | 1.6 | 4.8 | 0.00 | 0.00 | 0.00 | 48 | 1011.7 |
| 20260508132405 | 6 | 144 | 1.6 | 3.2 | 0.00 | 0.00 | 0.00 | 51 | 1011.7 |
| 20260508130905 | 5 | 144 | 1.6 | 4.8 | 0.00 | 0.00 | 0.00 | 54 | 1011.6 |
| 20260508130404 | 4 | 144 | 1.6 | 3.2 | 0.00 | 0.00 | 0.00 | 55 | 1011.5 |
| 20260508125405 | 4 | 144 | 0.0 | 4.8 | 0.00 | 0.00 | 0.00 | 55 | 1011.4 |
| 20260508122905 | 3 | 148 | 3.2 | 8.0 | 0.00 | 0.00 | 0.00 | 54 | 1011.4 |
| 20260508122405 | 3 | 149 | 1.6 | 4.8 | 0.00 | 0.00 | 0.00 | 55 | 1011.5 |
| 20260508121405 | 2 | 153 | 4.8 | 9.7 | 0.00 | 0.00 | 0.00 | 58 | 1011.5 |
| 20260508120905 | 2 | 140 | 3.2 | 4.8 | 0.00 | 0.00 | 0.00 | 60 | 1011.6 |
| 20260508115404 | 2 | 143 | 3.2 | 4.8 | 0.00 | 0.00 | 0.00 | 59 | 1011.4 |
| 20260508114406 | 2 | 143 | 0.0 | 1.6 | 0.00 | 0.00 | 0.00 | 60 | 1011.4 |
| 20260508113905 | 2 | 143 | 0.0 | 3.2 | 0.00 | 0.00 | 0.00 | 61 | 1011.4 |
| 20260508112404 | 2 | 143 | 1.6 | 3.2 | 0.00 | 0.00 | 0.00 | 57 | 1011.3 |
| 20260508111905 | 2 | 143 | 1.6 | 3.2 | 0.00 | 0.00 | 0.00 | 57 | 1011.2 |
| 20260508111405 | 2 | 143 | 0.0 | 3.2 | 0.00 | 0.00 | 0.00 | 56 | 1011.4 |
| 20260508110904 | 3 | 143 | 0.0 | 3.2 | 0.00 | 0.00 | 0.00 | 56 | 1011.2 |
| 20260508110404 | 3 | 143 | 0.0 | 3.2 | 0.00 | 0.00 | 0.00 | 56 | 1011.1 |
| 20260508105904 | 3 | 143 | 1.6 | 3.2 | 0.00 | 0.00 | 0.00 | 56 | 1011.1 |
| 20260508104905 | 3 | 143 | 0.0 | 3.2 | 0.00 | 0.00 | 0.00 | 55 | 1011.0 |
| 20260508104405 | 3 | 143 | 0.0 | 3.2 | 0.00 | 0.00 | 0.00 | 55 | 1010.8 |
| 20260508103404 | 3 | 143 | 1.6 | 4.8 | 0.00 | 0.00 | 0.00 | 54 | 1010.7 |
| 20260508102405 | 3 | 143 | 0.0 | 4.8 | 0.00 | 0.00 | 0.00 | 52 | 1010.5 |
| 20260508095904 | 4 | 143 | 0.0 | 3.2 | 0.00 | 0.00 | 0.00 | 48 | 1010.5 |
| 20260508094905 | 5 | 143 | 0.0 | 3.2 | 0.00 | 0.00 | 0.00 | 45 | 1010.5 |
| 20260508093405 | 6 | 143 | 0.0 | 1.6 | 0.00 | 0.00 | 0.00 | 41 | 1010.7 |
| 20260508092905 | 6 | 143 | 0.0 | 4.8 | 0.00 | 0.00 | 0.00 | 40 | 1010.7 |
| 20260508092405 | 6 | 143 | 1.6 | 4.8 | 0.00 | 0.00 | 0.00 | 39 | 1010.7 |
| 20260508085904 | 6 | 146 | 3.2 | 4.8 | 0.00 | 0.00 | 0.00 | 36 | 1010.9 |
| 20260508085405 | 6 | 144 | 3.2 | 4.8 | 0.00 | 0.00 | 0.00 | 35 | 1010.9 |
| 20260508082905 | 7 | 159 | 1.6 | 8.0 | 0.00 | 0.00 | 0.00 | 34 | 1011.2 |
| 20260508080905 | 7 | 144 | 4.8 | 11.3 | 0.00 | 0.00 | 0.00 | 33 | 1011.4 |
| 20260508074905 | 7 | 144 | 1.6 | 4.8 | 0.00 | 0.00 | 0.00 | 34 | 1011.6 |
| 20260508074405 | 6 | 145 | 1.6 | 4.8 | 0.00 | 0.00 | 0.00 | 34 | 1011.6 |